Location: Kerb�bon
(47.7970°N, 3.3487°W)
Time: 13:30:03
(UTC+00:00)

Cosmos 1354 Rocket - Pass Details

Date: 12 May 2021
Orbit: 764 x 784 km, 74.0° (Epoch: 18 June)

Event Time Altitude Azimuth Distance (km) Brightness Sun altitude
Rises 20:40:13 0° 203° (SSW) 3,216 7.0 -9.0°
Reaches altitude 10° 20:42:34 10° 204° (SSW) 2,295 6.3 -9.3°
Maximum altitude 20:47:47 83° 293° (WNW) 778 4.1 -9.9°
Drops below altitude 10° 20:53:04 10° 21° (NNE) 2,320 6.8 -10.6°
Sets 20:55:28 0° 23° (NNE) 3,254 7.5 -10.9°
